Location: Hamburg
(53.5511°N, 9.9937°E)
Time: 16:54:30
(UTC+02:00)

ISS - Pass Details

Date: 21 March 2026
Orbit: 416 x 425 km, 51.6° (Epoch: 19 April)

Event Time Altitude Azimuth Distance (km) Brightness Sun altitude
Rises 19:52:29 0° 272° (W) 2,389 1.7 -12.1°
Reaches altitude 10° 19:54:36 10° 268° (W) 1,521 0.3 -12.4°
Maximum altitude 19:57:58 58° 189° (S) 504 -3.5 -12.9°
Enters shadow 19:59:46 24° 118° (ESE) 920 -2.6 -13.1°
